Regional Weather Roundup
Issued by NWS Jackson, KY

Home | Current Version | Previous Version | Graphics & Text | Print | Product List | Glossary On
Versions: 1 2 3 4 5 6 7 8 9 10 11 12 13 14 15 16 17 18 19 20 21 22 23 24 25 26 27 28 29 30 31 32 33 34 35 36 37 38 39 40 41 42 43 44 45 46 47 48 49 50
000
ASUS43 KJKL 181811
RWRJKL

EAST KENTUCKY HOURLY WEATHER ROUNDUP
NATIONAL WEATHER SERVICE JACKSON KY
100 PM EST THU DEC 18 2014

NOTE: "FAIR" INDICATES FEW OR NO CLOUDS BELOW 12,000 FEET WITH
NO SIGNIFICANT WEATHER AND/OR OBSTRUCTIONS TO VISIBILITY.

* THESE REPORTS ARE NOT UNDER NWS QUALITY CONTROL AND MAY NOT
  REPORT WEATHER SUCH AS PRECIPITATION AND FOG.

KYZ079-080-083-085-087-088-110-112-115-119-120-181900
...EASTERN KENTUCKY...

CITY           SKY/WX    TMP DP  RH WIND       PRES   REMARKS
JACKSON        CLOUDY    34  23  64 CALM      30.17F
6HR MIN TEMP:  28; 6HR MAX TEMP:  35;

LONDON         CLOUDY    36  26  67 CALM      30.18F
6HR MIN TEMP:  28; 6HR MAX TEMP:  36;

SOMERSET*      CLOUDY    34  27  75 NW5       30.22F WCI  30
MONTICELLO*    CLOUDY    37  29  73 W3        30.24F
6HR MIN TEMP:  30; 6HR MAX TEMP:  37;

MIDDLESBORO*   CLOUDY    40  27  60 CALM      30.16F
HARLAN APT*    PTCLDY    41  27  56 CALM      30.13F
HAZARD APT*    MOCLDY    36  27  69 CALM      30.17F
BLACK MTN*       N/A     36  19  51 CALM        N/A
PIKEVILLE APT* PTSUNNY   34  25  69 CALM      30.16F
BIG SANDY*     MOCLDY    34  25  70 CALM      30.19F
6HR MIN TEMP:  29; 6HR MAX TEMP:  34;

MOREHEAD APT*  CLOUDY    32  23  69 CALM      30.23F
$$

KYZ035-036-041-042-044-050-067-078-099-181900
...CENTRAL KENTUCKY...

CITY           SKY/WX    TMP DP  RH WIND       PRES   REMARKS
MT STERLING*   CLOUDY    32  25  74 CALM      30.23R
FLEMING/MASON* CLOUDY    28  21  74 N5        30.24R WCI  23
DANVILLE*      CLOUDY    32  27  80 CALM      30.22F
RICHMOND*        N/A     32  25  74 N3        30.21
LEXINGTON      CLOUDY    31  23  72 NE5       30.22F WCI  26
6HR MIN TEMP:  28; 6HR MAX TEMP:  32;

FRANKFORT      CLOUDY    31  22  69 NW3       30.24S
6HR MIN TEMP:  28; 6HR MAX TEMP:  31;

$$

KYZ091>093-OHZ055-061-077-WVZ005-015-034-035-042-181900
...SOUTHERN OHIO/WEST VIRGINIA...

CITY           SKY/WX    TMP DP  RH WIND       PRES   REMARKS
COVINGTON      CLOUDY    28  18  66 W3        30.25F
COLUMBUS       CLOUDY    28  20  71 W6        30.22F WCI  22
DAYTON         CLOUDY    28  20  71 NW5       30.22F WCI  23
WILMINGTON     CLOUDY    27  18  69 W3        30.22F
HUNTINGTON     CLOUDY    32  23  69 W3        30.21F
CHARLESTON     CLOUDY    32  22  66 CALM      30.20F
PINEVILLE*     MOSUNNY   39  28  66 MISG      30.20R
BECKLEY        MOSUNNY   33  21  61 W6        30.10F WCI  28
BLUEFIELD      PTSUNNY   37  21  52 NW6       30.08F WCI  32
$$

VAZ002-007-008-TNZ017-027-036-066-071-181900
...SOUTHWEST VIRGINIA/EAST TENNESSEE...

CITY           SKY/WX    TMP DP  RH WIND       PRES   REMARKS
WISE*          CLOUDY    39  23  52 W5        30.11F
JONESVILLE*    PTCLDY    39  27  60 CALM      30.16F
ABINGDON*      CLOUDY    39  30  70 CALM      30.11F
BRISTOL        CLOUDY    39  30  70 VRB3      30.14F
KNOXVILLE      PTSUNNY   41  29  62 CALM      30.16F
OAK RIDGE      PTSUNNY   43  28  55 CALM      30.18
CROSSVILLE     CLOUDY    42  30  62 CALM      30.15F
NASHVILLE      CLOUDY    36  33  89 N6        30.24S WCI  31
$$

...KEY TO REMARKS...
VSB - VISIBILITY IN MILES
WCI - WIND CHILL INDEX
HX  - HEAT INDEX

$$


USA.gov is the U.S. government's official web portal to all federal, state and local government web resources and services.